Location: Chiroubles
(46.1812°N, 4.6660°E)
Time: 15:13:12
(UTC+00:00)

Transit 4A - Pass Details

Date: 01 December 2020
Orbit: 864 x 980 km, 66.8° (Epoch: 26 January)

Event Time Altitude Azimuth Distance (km) Brightness Sun altitude
Rises 08:08:07 0° 233° (SW) 3,632 10.9 8.0°
Reaches altitude 10° 08:10:46 10° 239° (WSW) 2,702 10.2 8.3°
Maximum altitude 08:16:50 46° 312° (NW) 1,289 8.4 9.1°
Drops below altitude 10° 08:23:00 10° 25° (NNE) 2,741 10.2 9.8°
Sets 08:25:43 0° 32° (NNE) 3,690 10.9 10.1°
